Weather History for KAQP - September, 2013

Change the Weather History Date:

Wednesday, September 18, 2013

  Actual Average Record
Temperature  
Mean Temperature 74 °F -  
Max Temperature 87 °F 69 °F 93 °F (1998)
Min Temperature 60 °F 45 °F 35 °F (2007)
Cooling Degree Days 8    
Growing Degree Days 24 (Base 50)    
Moisture  
Dew Point 65 °F    
Average Humidity 75    
Maximum Humidity 94    
Minimum Humidity 51    
Precipitation  
Precipitation 0.00 in - - ()
Sea Level Pressure  
Sea Level Pressure 29.69 in    
Wind  
Wind Speed 9 mph (SE)    
Max Wind Speed 17 mph    
Max Gust Speed 23 mph    
Visibility 7 miles    
Events      
Averages and records for this station are not official NWS values.
T = Trace of Precipitation, MM = Missing Value Source: NWS Daily Summary

Daily Weather History Graph

Daily Weather History Graph

Search for Another Location

Airport or City:

Trip Planner

Search our weather history database for the weather conditions in past years. The results will help you decide how hot, cold, wet, or windy it might be!

Date:

Astronomy

Sep. 18, 2013 Rise Set
Actual Time 7:06 AM CDT 7:28 PM CDT
Civil Twilight 6:37 AM CDT 7:58 PM CDT
Nautical Twilight 6:02 AM CDT 8:32 PM CDT
Astronomical Twilight 5:26 AM CDT 9:08 PM CDT
Moon 6:51 PM CDT (9/18) 6:09 AM CDT (9/18)
Length of Visible Light 13h 21m
Length of Day
12h 22m
Waxing Gibbous, 99% of the Moon is Illuminated
Sep 18
Waxing Gibbous
Sep 19
Full
Sep 26
Last Quarter
Oct 4
New
Oct 11
First Quarter

Hourly Weather History & Observations

Time (CDT) Temp. Heat Index Dew Point Humidity Pressure Visibility Wind Dir Wind Speed Gust Speed Precip Events Conditions
12:13 AM 60.8 °F - 57.2 °F 88% 29.84 in 5.0 mi SE 8.1 mph - N/A   Overcast
12:33 AM 60.8 °F - 57.2 °F 88% 29.84 in 7.0 mi SSE 9.2 mph - N/A   Overcast
12:53 AM 60.8 °F - 57.2 °F 88% 29.82 in 7.0 mi SSE 11.5 mph - N/A   Overcast
1:14 AM 60.8 °F - 57.2 °F 88% 29.83 in 7.0 mi SSE 10.4 mph - N/A   Overcast
1:34 AM 62.6 °F - 57.2 °F 82% 29.82 in 7.0 mi SE 9.2 mph - N/A   Overcast
1:54 AM 62.6 °F - 57.2 °F 82% 29.82 in 7.0 mi SSE 8.1 mph - N/A   Overcast
2:13 AM 62.6 °F - 57.2 °F 82% 29.82 in 7.0 mi SSE 8.1 mph - N/A   Overcast
2:33 AM 62.6 °F - 59.0 °F 88% 29.81 in 7.0 mi SE 8.1 mph - N/A   Overcast
2:53 AM 62.6 °F - 59.0 °F 88% 29.80 in 5.0 mi SE 6.9 mph - N/A   Overcast
3:13 AM 62.6 °F - 59.0 °F 88% 29.79 in 5.0 mi SE 9.2 mph - N/A   Overcast
3:35 AM 62.6 °F - 59.0 °F 88% 29.78 in 4.0 mi SE 10.4 mph - N/A   Overcast
3:53 AM 62.6 °F - 60.8 °F 94% 29.77 in 3.0 mi SE 8.1 mph - N/A   Overcast
4:13 AM 62.6 °F - 60.8 °F 94% 29.76 in 2.5 mi SE 9.2 mph - N/A   Overcast
4:33 AM 62.6 °F - 60.8 °F 94% 29.76 in 2.0 mi SE 8.1 mph - N/A   Overcast
4:54 AM 62.6 °F - 60.8 °F 94% 29.75 in 2.0 mi SE 8.1 mph - N/A   Overcast
5:13 AM 64.4 °F - 60.8 °F 88% 29.74 in 2.0 mi SE 6.9 mph - N/A   Overcast
5:34 AM 64.4 °F - 62.6 °F 94% 29.73 in 2.5 mi SE 9.2 mph - N/A   Overcast
5:54 AM 64.4 °F - 62.6 °F 94% 29.73 in 2.5 mi SE 9.2 mph - N/A   Overcast
6:13 AM 64.4 °F - 62.6 °F 94% 29.73 in 2.0 mi SE 10.4 mph - N/A   Overcast
6:33 AM 64.4 °F - 62.6 °F 94% 29.72 in 2.0 mi SE 10.4 mph - N/A   Overcast
6:53 AM 64.4 °F - 62.6 °F 94% 29.72 in 2.0 mi SE 8.1 mph - N/A   Overcast
7:14 AM 66.2 °F - 62.6 °F 88% 29.73 in 2.5 mi ESE 13.8 mph 21.9 mph N/A   Overcast
7:34 AM 66.2 °F - 62.6 °F 88% 29.73 in 2.5 mi ESE 6.9 mph - N/A   Overcast
7:53 AM 66.2 °F - 64.4 °F 94% 29.73 in 2.5 mi SE 8.1 mph - N/A   Overcast
8:14 AM 66.2 °F - 64.4 °F 94% 29.73 in 1.8 mi SE 8.1 mph - N/A   Overcast
8:33 AM 66.2 °F - 64.4 °F 94% 29.73 in 1.8 mi ESE 10.4 mph - N/A   Overcast
8:53 AM 66.2 °F - 64.4 °F 94% 29.73 in 1.8 mi SE 8.1 mph - N/A   Overcast
9:13 AM 68.0 °F - 64.4 °F 88% 29.72 in 2.0 mi SE 8.1 mph - N/A   Overcast
9:34 AM 69.8 °F - 66.2 °F 88% 29.72 in 3.0 mi SE 10.4 mph - N/A   Overcast
9:53 AM 69.8 °F - 66.2 °F 88% 29.71 in 3.0 mi SE 9.2 mph - N/A   Overcast
10:13 AM 71.6 °F - 66.2 °F 83% 29.71 in 4.0 mi SE 10.4 mph - N/A   Haze
10:33 AM 71.6 °F - 66.2 °F 83% 29.70 in 5.0 mi SE 10.4 mph - N/A   Haze
10:53 AM 73.4 °F - 66.2 °F 78% 29.70 in 5.0 mi SSE 10.4 mph - N/A   Haze
11:13 AM 73.4 °F - 66.2 °F 78% 29.69 in 7.0 mi SE 12.7 mph 17.3 mph N/A   Overcast
11:33 AM 75.2 °F - 66.2 °F 73% 29.69 in 7.0 mi SSE 11.5 mph 16.1 mph N/A   Overcast
11:53 AM 75.2 °F - 66.2 °F 73% 29.68 in 7.0 mi SSE 6.9 mph - N/A   Overcast
12:13 PM 77.0 °F - 68.0 °F 74% 29.68 in 7.0 mi SSE 9.2 mph - N/A   Overcast
12:33 PM 78.8 °F - 66.2 °F 65% 29.67 in 10.0 mi SSE 11.5 mph 18.4 mph N/A   Overcast
12:53 PM 80.6 °F 82.7 °F 66.2 °F 61% 29.66 in 10.0 mi SSE 12.7 mph 20.7 mph N/A   Mostly Cloudy
1:13 PM 82.4 °F 84.6 °F 66.2 °F 58% 29.66 in 10.0 mi SSE 15.0 mph 21.9 mph N/A   Scattered Clouds
1:33 PM 82.4 °F 85.4 °F 68.0 °F 62% 29.65 in 10.0 mi SSE 11.5 mph 19.6 mph N/A   Clear
1:54 PM 84.2 °F 86.6 °F 66.2 °F 55% 29.64 in 10.0 mi SSE 17.3 mph 23.0 mph N/A   Clear
2:13 PM 84.2 °F 86.6 °F 66.2 °F 55% 29.63 in 10.0 mi SSE 10.4 mph - N/A   Clear
2:33 PM 84.2 °F 86.6 °F 66.2 °F 55% 29.63 in 10.0 mi SSE 13.8 mph 21.9 mph N/A   Clear
2:53 PM 86.0 °F 88.2 °F 66.2 °F 51% 29.63 in 10.0 mi SE 13.8 mph 21.9 mph N/A   Clear
3:13 PM 86.0 °F 88.2 °F 66.2 °F 51% 29.62 in 10.0 mi SSE 13.8 mph 20.7 mph N/A   Clear
3:33 PM 87.8 °F 91.4 °F 68.0 °F 52% 29.62 in 10.0 mi SSE 15.0 mph 19.6 mph N/A   Clear
3:53 PM 87.8 °F 91.4 °F 68.0 °F 52% 29.61 in 10.0 mi SE 13.8 mph - N/A   Clear
4:13 PM 87.8 °F 91.4 °F 68.0 °F 52% 29.61 in 10.0 mi SE 15.0 mph 20.7 mph N/A   Clear
4:33 PM 87.8 °F 91.4 °F 68.0 °F 52% 29.61 in 10.0 mi SSE 11.5 mph 21.9 mph N/A   Clear
4:53 PM 84.2 °F 87.3 °F 68.0 °F 58% 29.61 in 10.0 mi SSE 11.5 mph 20.7 mph N/A   Clear
5:13 PM 84.2 °F 87.3 °F 68.0 °F 58% 29.61 in 10.0 mi SE 10.4 mph 16.1 mph N/A   Clear
5:33 PM 87.8 °F 91.4 °F 68.0 °F 52% 29.60 in 10.0 mi SE 12.7 mph 18.4 mph N/A   Clear
5:53 PM 87.8 °F 91.4 °F 68.0 °F 52% 29.60 in 10.0 mi SSE 10.4 mph 20.7 mph N/A   Clear
6:13 PM 87.8 °F 91.4 °F 68.0 °F 52% 29.59 in 10.0 mi SSE 9.2 mph - N/A   Clear
6:33 PM 86.0 °F 90.4 °F 69.8 °F 58% 29.60 in 10.0 mi SSE 5.8 mph - N/A   Clear
6:53 PM 84.2 °F 88.4 °F 69.8 °F 62% 29.59 in 10.0 mi SSE 6.9 mph - N/A   Clear
7:13 PM 82.4 °F 86.3 °F 69.8 °F 66% 29.59 in 10.0 mi SSE 5.8 mph - N/A   Clear
7:33 PM 80.6 °F 83.2 °F 68.0 °F 65% 29.59 in 10.0 mi SSE 5.8 mph - N/A   Clear
7:53 PM 80.6 °F 83.2 °F 68.0 °F 65% 29.60 in 10.0 mi South 6.9 mph - N/A   Clear
8:13 PM 80.6 °F 83.2 °F 68.0 °F 65% 29.61 in 10.0 mi SSE 6.9 mph - N/A   Clear
8:33 PM 80.6 °F 83.2 °F 68.0 °F 65% 29.62 in 10.0 mi South 8.1 mph - N/A   Clear
8:53 PM 80.6 °F 83.2 °F 68.0 °F 65% 29.62 in 10.0 mi South 8.1 mph - N/A   Clear
9:14 PM 80.6 °F 83.2 °F 68.0 °F 65% 29.61 in 10.0 mi SSE 9.2 mph - N/A   Clear
9:33 PM 80.6 °F 83.2 °F 68.0 °F 65% 29.62 in 10.0 mi SSE 8.1 mph - N/A   Clear
9:54 PM 78.8 °F - 68.0 °F 69% 29.63 in 10.0 mi South 6.9 mph - N/A   Clear
10:13 PM 78.8 °F - 68.0 °F 69% 29.63 in 10.0 mi SSE 6.9 mph - N/A   Clear
10:34 PM 77.0 °F - 68.0 °F 74% 29.63 in 10.0 mi SSE 4.6 mph - N/A   Clear
10:53 PM 77.0 °F - 68.0 °F 74% 29.62 in 10.0 mi SE 5.8 mph - N/A   Clear
11:13 PM 77.0 °F - 68.0 °F 74% 29.61 in 10.0 mi SSE 9.2 mph - N/A   Clear
11:34 PM 75.2 °F - 68.0 °F 78% 29.61 in 10.0 mi SSE 9.2 mph - N/A   Clear
11:53 PM 75.2 °F - 68.0 °F 78% 29.62 in 10.0 mi SSE 6.9 mph - N/A   Clear